(13) Egeria
ephemeris date magn radius delta ra dec elong phase
Today27 Jun 202611.72.606 AU2.107 AU13h23m-09°26'107.9°21.8°
Opposition1 Aug 202711.12.792 AU1.842 AU21h23m-42°11'154.5°9.0°
(13) Egeria - 2026-06-27
astro.vanbuitenen.nl


 
-1 year
-1 month
-1 day
Now
+1 day
+1 month
+1 year

The interactive orbit chart above shows the body's path through the solar system and its position at the given date. Green and blue lines are shown perpendicular to the ecliptic plane: Green if the path is above the ecliptic plane, blue if it is below. (Left-click and drag to rotate the view; Right-click and drag to move the view; Use scroll wheel to zoom in our out.)

The orbital elements of Egeria are:

            e (Eccentricity)                : 0.0846050
            a (Semimajor axis)              : 2.5763636
            i (Inclination)                 : 16.52511
            Ω (Longitude of ascending node) : 43.17727
            ω (Argument of perihelion)      : 79.11880
            M (Mean anomaly)                : 88.61668
            Epoch                           : 2026 Jun 09

            L (Longitude of perihelion)     : 121.83916
            B (Latitude of perihelion)      : 16.21972
            P (Orbital period in years)     : 4.14            
        

The light curve chart below shows the estimated development of the minor planet's magnitude.


The all-sky chart below shows the path of the minor planet over the same period as the light curve. The current position is marked yellow.





The following chart shows the path of the minor planet in the next few days. The field of view is optimized for (~10x50) binoculars and finderscopes.




Ephemerides:
Date       Time       RA (2000)    DEC (2000)    delta   radius  elong  phase   PA    magn
2026-06-27 00:00 UT   13 23 59.5   -09 26 31     2.107    2.606  107.9   21.8   112   11.7 
2026-06-27 05:33 UT   13 24 04.3   -09 28 09     2.110    2.606  107.7   21.8   112   11.7 
2026-06-28 00:00 UT   13 24 20.6   -09 33 38     2.120    2.606  107.1   21.9   112   11.7 
2026-06-29 00:00 UT   13 24 43.1   -09 40 48     2.133    2.607  106.3   22.0   112   11.7 
2026-06-30 00:00 UT   13 25 06.8   -09 48 02     2.147    2.608  105.4   22.1   112   11.7 
2026-07-01 00:00 UT   13 25 31.8   -09 55 19     2.160    2.609  104.6   22.1   112   11.7 
2026-07-02 00:00 UT   13 25 58.1   -10 02 41     2.173    2.610  103.8   22.2   111   11.8 
2026-07-03 00:00 UT   13 26 25.6   -10 10 05     2.187    2.611  103.0   22.3   111   11.8 
2026-07-04 00:00 UT   13 26 54.4   -10 17 33     2.200    2.612  102.2   22.4   111   11.8 
2026-07-05 00:00 UT   13 27 24.4   -10 25 04     2.214    2.613  101.4   22.4   111   11.8 
2026-07-06 00:00 UT   13 27 55.5   -10 32 39     2.227    2.614  100.6   22.5   111   11.8 
2026-07-07 00:00 UT   13 28 27.9   -10 40 16     2.241    2.614   99.8   22.5   111   11.8 
2026-07-08 00:00 UT   13 29 01.4   -10 47 57     2.255    2.615   99.1   22.6   111   11.9 
2026-07-09 00:00 UT   13 29 36.0   -10 55 40     2.268    2.616   98.3   22.6   111   11.9 
2026-07-10 00:00 UT   13 30 11.8   -11 03 27     2.282    2.617   97.5   22.7   111   11.9 
2026-07-11 00:00 UT   13 30 48.8   -11 11 17     2.296    2.618   96.8   22.7   111   11.9 
2026-07-12 00:00 UT   13 31 26.8   -11 19 09     2.310    2.619   96.0   22.7   111   11.9 
2026-07-13 00:00 UT   13 32 05.9   -11 27 05     2.323    2.620   95.2   22.7   111   11.9 
2026-07-14 00:00 UT   13 32 46.2   -11 35 03     2.337    2.621   94.5   22.7   111   11.9 
2026-07-15 00:00 UT   13 33 27.5   -11 43 03     2.351    2.621   93.7   22.8   111   12.0 
2026-07-16 00:00 UT   13 34 09.8   -11 51 07     2.365    2.622   93.0   22.8   111   12.0 
2026-07-17 00:00 UT   13 34 53.2   -11 59 12     2.379    2.623   92.3   22.8   111   12.0 
2026-07-18 00:00 UT   13 35 37.6   -12 07 21     2.392    2.624   91.5   22.8   111   12.0 
2026-07-19 00:00 UT   13 36 23.1   -12 15 31     2.406    2.625   90.8   22.8   111   12.0 
2026-07-20 00:00 UT   13 37 09.5   -12 23 44     2.420    2.626   90.1   22.8   111   12.0 
2026-07-21 00:00 UT   13 37 56.9   -12 31 60     2.434    2.627   89.3   22.8   111   12.0 
2026-07-22 00:00 UT   13 38 45.3   -12 40 17     2.448    2.628   88.6   22.7   111   12.0 
2026-07-23 00:00 UT   13 39 34.6   -12 48 36     2.462    2.628   87.9   22.7   111   12.1 
2026-07-24 00:00 UT   13 40 24.9   -12 56 57     2.475    2.629   87.2   22.7   111   12.1 
2026-07-25 00:00 UT   13 41 16.0   -13 05 21     2.489    2.630   86.5   22.7   111   12.1 
2026-07-26 00:00 UT   13 42 08.1   -13 13 46     2.503    2.631   85.8   22.6   111   12.1 
2026-07-27 00:00 UT   13 43 01.1   -13 22 12     2.517    2.632   85.1   22.6   111   12.1 


    Terminology:
            
    delta:  distance between minor planet and earth in AU
    radius: distance between minor planet and sun in AU
    magn:   magnitude (brightness) estimate    
    ra:     right ascension in hours (24h = 360deg)
    dec:    declination in degrees
    elong:  elongation in degrees (angle sun-earth-minor planet)    
    phase:  phase angle in degrees (angle sun-minor planet-earth)        
    AU:     Astronomical Unit (mean distance between earth and sun: 149597870.7 km
    

Orbital elements provided by the MPC (Minor Planet Center).
Calculations by a modified version of AAPlus, a C# implementation of the AA+ project by PJ Naughter from the algorithms presented in the book "Astronomical Algorithms" by Jean Meeus.
NGC2000 dso catalog and star labels from VizieR as provided by the Strasbourg astronomical Data Center.
Tycho2 catalog from the ESO archive.